Location: Newark
(49.8348°N, 24.0280°E)
Time: 14:31:55
(UTC+00:00)

Courier 1B - Pass Details

Date: 26 January 2020
Orbit: 962 x 1209 km, 28.3° (Epoch: 28 February)

Event Time Altitude Azimuth Distance (km) Brightness Sun altitude
Exits shadow 04:27:59 - 231° (SW) 3,608 10.1 -15.6°
Reaches altitude 10° 04:31:54 10° 206° (SSW) 3,086 10.0 -15.0°
Maximum altitude 04:33:33 11° 193° (SSW) 3,039 10.1 -14.7°
Drops below altitude 10° 04:35:13 10° 180° (S) 3,110 10.3 -14.5°
Sets 04:41:06 0° 147° (SSE) 4,098 11.5 -13.5°
